星链-5823 (STARLINK-5823 )

导读

STARLINK-5823是美国太空探索技术公司(SpaceX)星链(Starlink)卫星互联网项目的卫星,于2023年3月3日发射,为星链星座组网补充卫星资源。它旨在为全球提供低延迟、高速率的卫星宽带互联网服务,尤其覆盖偏远及网络基础设施匮乏区域,推动全球互联网接入普及,是星链近地轨道星座部署中的一环。

基本信息
目录编号:
55786
目录名称:
STARLINK-5823
国际标识:
2023-028AX
轨道中心:
EARTH
卫星名称:
星链-5823
卫星全名:
星链-5823 (STARLINK-5823 )
卫星状态:
在轨 (已飞行1289 天)
发射日期:
2023-03-03 UTC
国别 :
美国 (US)
星等 :
--
该卫星已列入 空间交会检测服务 Space Conjunction Data Service (SCDS) ,当前飞行风险评估等级: 无高风险
轨道信息
数据来源 国际轨道数据
星历时间: 2026-09-12T16:00:02+0800
8小时前
查看轨道信息
半长轴: 6915.053km
偏心率: 0.0003503
轨道倾角: 70.000°
近地点辐角 262.313°
升交点赤经 93.731°
平近点角 219.277°
近地点: 534.493km
远地点: 539.339km
周期: 95.379分钟
每日圈数: 15.097658
详细信息
固有亮度:
5
最大亮度:
2.5
卫星平台:
Starlink v1.5
覆盖范围:
全球
运营商:
太空探索技术公司
运营商所在国:
美国
制造商(研发单位):
太空探索技术公司
制造商所在国:
美国
使用方式:
暂无
卫星简介
星链(Starlink)计划是由太空探索技术公司(SpaceX)提出的一个巨型低轨卫星互联网星座项目,计划在2019年至2024年间在太空搭建由约1.2万颗卫星组成的“星链”网络,其中1584颗将部署在地球上空550千米处的近地轨道,并从2020年开始工作。该卫星仍在工作。
2D轨道图
3D轨道图
轨道高度分析图
轨道倾角分析图
轨道综合分析图
查看轨道综合分析图
交会数据列表
事件ID 空间交会对象 最接近时刻(TCA) 交会距离 交会风险概率(CRP) 交会风险指数(CRI) 操作
CDM_260914-015905-578606-505621
2026-09-14T
01:59:02+0000
1.078 km
极远距离
1.936451E-5 中风险 0.61
CDM_260912-230904-004905-578622
2026-09-12T
23:09:26+0000
1.582 km
极远距离
5.702023E-6 低风险 0.5
CDM_260913-123803-444905-578621
2026-09-13T
12:38:46+0000
2.488 km
极远距离
1.669673E-6 低风险 0.39
与全量物体交会距离演化趋势
与全量物体交会风险概率演化趋势